Total_Precipitation_Accumulation
0.93 1.15 1.44 1.81 1.97 1.51 1.05 0.67 0.47 0.44 0.41 0.27 0.16 0.13 0.31 0.65 0.93 1.07 0.86 0.69 0.53 0.43 0.32 0.41 0.62 0.63 0.58 0.58 0.57 0.64 0.65 0.71 0.64 0.58 0.48 0.39 0.33 0.29 0.24 0.19 0.18 0.18 0.15 0.15 0.17 0.30 0.32 0.29 0.37
0.77 1.48 1.80 2.18 1.71 1.06 0.87 0.62 0.50 0.44 0.32 0.21 0.12 0.11 0.22 0.27 0.29 0.47 0.89 0.91 0.56 0.49 0.43 0.47 0.65 0.64 0.63 0.64 0.70 0.78 0.77 0.84 0.81 0.63 0.49 0.38 0.38 0.43 0.36 0.32 0.39 0.25 0.17 0.15 0.18 0.27 0.32 0.30 0.34
0.91 1.63 2.13 2.14 1.18 0.89 0.87 0.67 0.52 0.41 0.23 0.18 0.14 0.11 0.20 0.28 0.43 0.63 1.02 0.85 0.66 0.60 0.54 0.69 0.83 0.77 0.74 0.72 0.87 0.97 0.95 0.98 0.86 0.60 0.44 0.40 0.45 0.52 0.54 0.52 0.50 0.29 0.20 0.18 0.20 0.26 0.31 0.29 0.29
1.09 1.69 1.85 1.47 1.04 0.82 0.73 0.62 0.39 0.35 0.22 0.11 0.12 0.17 0.15 0.29 0.48 0.68 0.78 0.68 0.61 0.62 0.58 0.72 0.88 0.88 0.84 0.81 0.94 1.06 1.13 1.13 1.00 0.70 0.54 0.52 0.58 0.60 0.60 0.64 0.47 0.35 0.29 0.24 0.23 0.26 0.30 0.26 0.26
1.25 1.75 1.63 1.23 1.05 0.85 0.62 0.46 0.32 0.30 0.22 0.11 0.10 0.25 0.24 0.35 0.56 0.65 0.66 0.64 0.57 0.58 0.53 0.57 0.75 0.83 0.85 0.89 1.05 1.14 1.19 1.21 1.13 0.90 0.74 0.64 0.60 0.61 0.64 0.67 0.52 0.42 0.34 0.31 0.31 0.30 0.32 0.30 0.29
1.35 1.51 1.58 1.25 1.06 0.92 0.75 0.50 0.35 0.28 0.22 0.19 0.21 0.31 0.31 0.38 0.55 0.69 0.73 0.77 0.78 0.74 0.62 0.53 0.62 0.72 0.78 0.85 1.00 1.10 1.14 1.13 1.08 0.92 0.79 0.71 0.66 0.62 0.67 0.70 0.58 0.49 0.40 0.35 0.36 0.38 0.39 0.36 0.32
1.18 1.33 1.35 0.95 1.01 1.14 0.82 0.46 0.40 0.32 0.31 0.27 0.23 0.37 0.44 0.46 0.51 0.64 0.79 0.87 0.93 0.88 0.77 0.61 0.61 0.68 0.81 0.94 0.99 1.00 1.01 1.01 0.99 0.89 0.84 0.77 0.70 0.60 0.61 0.62 0.54 0.49 0.45 0.42 0.41 0.42 0.41 0.36 0.34
0.80 0.89 0.94 0.92 1.03 1.23 0.66 0.38 0.27 0.24 0.24 0.21 0.23 0.42 0.51 0.44 0.48 0.63 0.92 1.06 1.13 1.02 0.88 0.73 0.66 0.67 0.72 0.76 0.88 0.98 1.03 1.02 1.00 0.88 0.79 0.74 0.66 0.56 0.56 0.51 0.46 0.48 0.51 0.55 0.51 0.45 0.41 0.39 0.34
0.76 0.91 1.09 1.16 0.96 0.86 0.45 0.34 0.22 0.18 0.24 0.29 0.24 0.28 0.34 0.33 0.44 0.61 0.79 0.92 1.03 0.95 0.89 0.93 0.89 0.86 0.85 0.78 0.82 0.99 1.08 1.10 1.00 0.93 0.86 0.77 0.57 0.48 0.53 0.47 0.54 0.59 0.65 0.67 0.63 0.55 0.45 0.40 0.34
0.83 1.02 1.07 0.84 0.64 0.51 0.36 0.33 0.25 0.22 0.27 0.28 0.24 0.27 0.35 0.34 0.45 0.57 0.63 0.69 0.68 0.70 0.72 0.78 0.84 0.93 0.95 0.85 1.03 1.27 1.16 1.02 0.83 0.87 0.78 0.75 0.70 0.66 0.53 0.55 0.66 0.73 0.74 0.70 0.68 0.65 0.52 0.40 0.30
0.71 0.78 0.64 0.61 0.47 0.34 0.34 0.36 0.28 0.26 0.29 0.24 0.24 0.26 0.30 0.35 0.40 0.46 0.52 0.59 0.60 0.63 0.62 0.63 0.69 0.78 0.87 0.99 1.20 1.51 1.55 1.33 1.15 0.97 0.90 0.86 0.75 0.67 0.61 0.59 0.64 0.68 0.68 0.57 0.58 0.58 0.44 0.35 0.34
0.56 0.41 0.38 0.46 0.39 0.32 0.30 0.29 0.24 0.21 0.23 0.20 0.20 0.24 0.30 0.36 0.41 0.44 0.46 0.49 0.51 0.53 0.57 0.49 0.46 0.58 0.68 0.79 0.91 1.20 1.27 1.21 1.08 0.91 0.84 0.90 0.85 0.74 0.69 0.66 0.71 0.71 0.69 0.72 0.72 0.73 0.63 0.48 0.40
0.63 0.47 0.36 0.37 0.35 0.31 0.26 0.25 0.23 0.19 0.18 0.17 0.18 0.23 0.31 0.37 0.40 0.41 0.42 0.45 0.49 0.56 0.59 0.54 0.45 0.46 0.50 0.55 0.62 0.76 0.92 1.03 1.03 0.99 0.83 0.82 0.81 0.76 0.77 0.71 0.76 0.68 0.66 0.72 0.77 0.75 0.76 0.66 0.51
0.44 0.39 0.41 0.38 0.32 0.27 0.23 0.20 0.22 0.22 0.21 0.20 0.21 0.26 0.31 0.36 0.40 0.47 0.48 0.49 0.47 0.51 0.63 0.62 0.52 0.48 0.50 0.47 0.47 0.48 0.61 0.76 0.92 0.94 0.83 0.85 0.86 0.81 0.86 0.82 0.81 0.78 0.71 0.73 0.88 0.80 0.82 0.78 0.69
0.35 0.39 0.40 0.35 0.33 0.28 0.25 0.25 0.22 0.24 0.24 0.25 0.26 0.26 0.31 0.35 0.39 0.48 0.50 0.47 0.45 0.45 0.50 0.57 0.54 0.56 0.60 0.59 0.59 0.49 0.52 0.59 0.73 0.85 0.84 0.90 0.85 0.77 0.82 0.84 0.80 0.79 0.80 0.80 0.85 0.86 0.89 0.77 0.68
0.42 0.48 0.63 0.52 0.47 0.42 0.38 0.34 0.24 0.28 0.24 0.26 0.30 0.29 0.31 0.33 0.36 0.44 0.47 0.47 0.47 0.47 0.50 0.54 0.56 0.62 0.68 0.74 0.75 0.69 0.74 0.76 0.77 0.91 0.89 0.84 0.87 0.83 0.84 0.89 0.90 0.94 0.96 0.93 0.94 0.97 0.96 0.87 0.80
0.53 0.51 0.52 0.51 0.40 0.37 0.32 0.28 0.27 0.31 0.25 0.22 0.24 0.25 0.25 0.25 0.26 0.32 0.38 0.40 0.42 0.43 0.44 0.48 0.56 0.61 0.64 0.72 0.85 0.98 1.02 1.02 0.98 1.01 0.97 0.87 0.85 0.90 1.02 1.05 1.10 1.08 1.08 1.10 1.06 1.06 0.98 0.94 0.89
0.63 0.36 0.26 0.28 0.30 0.29 0.23 0.23 0.25 0.27 0.24 0.19 0.17 0.18 0.19 0.18 0.19 0.22 0.26 0.29 0.31 0.33 0.36 0.41 0.49 0.65 0.79 0.87 0.92 1.07 1.13 1.21 1.30 1.34 1.22 1.09 1.10 1.22 1.36 1.43 1.37 1.36 1.34 1.32 1.26 1.32 1.21 1.02 0.98
0.46 0.31 0.24 0.22 0.22 0.21 0.18 0.17 0.18 0.18 0.18 0.16 0.14 0.12 0.13 0.12 0.12 0.12 0.14 0.18 0.20 0.22 0.27 0.33 0.39 0.55 0.69 0.79 0.91 1.10 1.28 1.46 1.62 1.74 1.63 1.48 1.44 1.60 1.71 1.63 1.70 1.72 1.57 1.56 1.60 1.64 1.57 1.31 1.15
0.37 0.29 0.21 0.16 0.13 0.11 0.11 0.11 0.13 0.13 0.12 0.11 0.11 0.10 0.10 0.09 0.08 0.06 0.06 0.09 0.10 0.12 0.17 0.23 0.30 0.42 0.55 0.70 0.93 1.15 1.45 1.54 1.63 1.77 1.82 1.75 1.68 1.82 1.86 1.93 1.98 2.00 1.97 1.92 1.80 1.84 1.91 1.66 1.42
0.22 0.22 0.21 0.18 0.12 0.07 0.07 0.07 0.08 0.10 0.09 0.08 0.07 0.09 0.10 0.08 0.06 0.05 0.05 0.05 0.07 0.08 0.10 0.17 0.28 0.44 0.66 0.88 1.19 1.48 1.73 1.81 1.86 1.81 1.87 1.96 2.00 2.06 2.08 2.13 2.18 2.16 2.00 1.97 2.05 2.13 2.41 2.19 1.83
0.22 0.13 0.11 0.11 0.11 0.10 0.09 0.14 0.10 0.12 0.13 0.12 0.11 0.12 0.14 0.12 0.08 0.06 0.06 0.07 0.08 0.11 0.15 0.24 0.40 0.62 0.89 1.23 1.57 1.81 2.04 2.14 1.98 1.96 2.00 2.01 1.97 2.00 2.10 2.10 2.09 2.06 1.98 2.02 2.07 2.09 2.41 2.56 2.23
0.14 0.11 0.10 0.09 0.10 0.08 0.05 0.09 0.12 0.17 0.22 0.22 0.19 0.19 0.20 0.18 0.14 0.12 0.14 0.15 0.19 0.24 0.32 0.47 0.71 1.00 1.28 1.50 1.69 1.90 2.04 2.05 2.03 2.00 1.99 1.92 1.89 1.86 1.88 1.89 1.98 2.00 2.04 2.06 2.19 2.26 2.48 2.48 2.45
0.11 0.08 0.09 0.09 0.11 0.09 0.06 0.11 0.20 0.24 0.24 0.23 0.21 0.20 0.18 0.17 0.19 0.21 0.23 0.29 0.36 0.40 0.54 0.72 0.90 1.18 1.35 1.47 1.59 1.79 1.93 1.97 1.99 1.98 1.97 1.96 1.94 1.83 1.76 1.74 1.80 1.92 2.07 2.10 2.14 2.24 2.46 2.56 2.62
0.07 0.09 0.16 0.16 0.19 0.17 0.14 0.24 0.35 0.33 0.26 0.22 0.22 0.21 0.19 0.22 0.27 0.28 0.38 0.52 0.60 0.64 0.72 0.86 0.95 1.12 1.22 1.27 1.37 1.51 1.58 1.65 1.71 1.70 1.65 1.60 1.55 1.52 1.54 1.63 1.71 1.84 1.97 2.03 2.11 2.23 2.25 2.35 2.60
0.03 0.07 0.22 0.27 0.26 0.25 0.24 0.45 0.51 0.37 0.30 0.27 0.24 0.22 0.24 0.33 0.42 0.54 0.67 0.77 0.84 0.85 0.81 0.83 0.95 1.00 0.98 1.01 1.02 1.14 1.23 1.30 1.38 1.39 1.37 1.40 1.42 1.42 1.34 1.39 1.48 1.71 1.90 1.97 2.04 2.06 2.03 2.07 2.24
0.03 0.06 0.12 0.23 0.21 0.22 0.32 0.61 0.61 0.38 0.32 0.28 0.25 0.26 0.32 0.46 0.66 0.89 1.07 1.18 1.26 1.17 0.98 0.84 0.84 0.83 0.80 0.86 0.90 0.95 1.05 1.09 1.12 1.16 1.11 1.21 1.24 1.22 1.17 1.18 1.21 1.32 1.54 1.79 1.95 1.88 1.81 1.78 1.90
0.06 0.11 0.20 0.35 0.40 0.37 0.44 0.66 0.68 0.51 0.41 0.35 0.36 0.46 0.62 0.82 1.09 1.34 1.59 1.70 1.68 1.49 1.22 0.94 0.79 0.74 0.70 0.73 0.78 0.85 0.89 0.90 0.89 0.92 0.88 0.95 1.03 1.04 1.03 1.00 1.04 1.16 1.27 1.47 1.70 1.79 1.75 1.70 1.73
0.11 0.19 0.27 0.41 0.48 0.58 0.68 0.84 0.74 0.69 0.64 0.61 0.68 0.86 1.07 1.34 1.52 1.66 1.81 1.86 1.60 1.42 1.17 0.92 0.77 0.79 0.78 0.78 0.78 0.78 0.76 0.74 0.74 0.74 0.71 0.73 0.78 0.78 0.81 0.96 1.01 1.08 1.16 1.33 1.58 1.75 1.76 1.67 1.65
0.24 0.38 0.52 0.74 0.71 0.68 0.85 0.96 0.76 0.71 0.79 0.83 0.94 1.00 1.10 1.25 1.27 1.35 1.41 1.36 1.32 1.27 1.10 0.94 0.85 0.85 0.88 0.88 0.86 0.78 0.70 0.67 0.67 0.64 0.57 0.57 0.54 0.54 0.66 0.77 0.82 0.87 0.91 1.08 1.37 1.56 1.59 1.53 1.44